Change the Weather History Date:

Thursday, October 17, 2013

  Actual Average Record
Temperature  
Mean Temperature 47 °F -  
Max Temperature 52 °F 51 °F 58 °F (2014)
Min Temperature 42 °F 43 °F 39 °F (1998)
Degree Days  
Heating Degree Days 18    
Moisture  
Dew Point 45 °F    
Average Humidity 90    
Maximum Humidity 100    
Minimum Humidity 81    
Precipitation  
Precipitation 0.00 in 0.46 in - ()
Sea Level Pressure  
Sea Level Pressure 30.31 in    
Wind  
Wind Speed 7 mph ()    
Max Wind Speed 12 mph    
Max Gust Speed -    
Visibility 7.6 miles    
Events Fog    
Averages and records for this station are not official NWS values.
T = Trace of Precipitation, MM = Missing Value Source: Averaged Metar Reports

Daily Weather History Graph

Daily Weather History Graph

Search for Another Location

Airport or City:

Trip Planner

Search our weather history database for the weather conditions in past years. The results will help you decide how hot, cold, wet, or windy it might be!

Date:

Astronomy

Oct. 17, 2013 Rise Set
Actual Time 8:18 AM PDT 6:45 PM PDT
Civil Twilight 7:43 AM PDT 7:20 PM PDT
Nautical Twilight 7:02 AM PDT 8:01 PM PDT
Astronomical Twilight 6:22 AM PDT 8:41 PM PDT
Moon 6:07 PM PDT (10/17) 6:50 AM PDT (10/17)
Length of Visible Light 11h 37m
Length of Day
10h 27m
Waxing Gibbous, 98% of the Moon is Illuminated
Oct 17
Waxing Gibbous
Oct 18
Full
Oct 26
Last Quarter
Nov 3
New
Nov 9
First Quarter

Hourly Weather History & Observations

Time (PDT) Temp. Windchill Dew Point Humidity Pressure Visibility Wind Dir Wind Speed Gust Speed Precip Events Conditions
12:00 AM 48.2 °F - 44.6 °F 87% 30.29 in 9.0 mi NW 11.5 mph - N/A   Clear
1:00 AM 50.0 °F - 44.6 °F 82% 30.29 in 9.0 mi NNW 10.4 mph - N/A   Scattered Clouds
1:20 AM 50.0 °F - 44.6 °F 82% 30.29 in 9.0 mi NNW 10.4 mph - N/A   Mostly Cloudy
1:59 AM 48.2 °F - 44.6 °F 87% 30.29 in 9.0 mi NW 10.4 mph - N/A   Scattered Clouds
2:00 AM 49 °F - 45 °F 82% 30.28 in - NW 4.6 mph - -  
2:00 AM 48.2 °F - 44.6 °F 87% 30.29 in 9.0 mi NW 10.4 mph - N/A   Scattered Clouds
3:00 AM 48.2 °F - 44.6 °F 87% 30.29 in 9.0 mi West 8.1 mph - N/A   Clear
4:00 AM 48.2 °F - 44.6 °F 87% 30.29 in 9.0 mi WNW 9.2 mph - N/A   Clear
5:00 AM 46 °F - 44 °F 90% 30.27 in - West 2.3 mph - -  
5:00 AM 46.4 °F 42.9 °F 44.6 °F 93% 30.28 in 9.0 mi West 6.9 mph - N/A   Clear
6:00 AM 46.4 °F 41.9 °F 44.6 °F 93% 30.29 in 9.0 mi WSW 9.2 mph - N/A   Clear
7:00 AM 44.6 °F 39.7 °F 42.8 °F 93% 30.29 in 9.0 mi West 9.2 mph - N/A   Partly Cloudy
8:00 AM 44 °F - 43 °F 93% 30.28 in - WSW 1.2 mph - -  
8:00 AM 44.6 °F 40.7 °F 42.8 °F 93% 30.29 in 9.0 mi West 6.9 mph - N/A   Clear
8:46 AM 44.6 °F 40.2 °F 42.8 °F 93% 30.30 in 3.0 mi West 8.1 mph - N/A   Scattered Clouds
8:47 AM 44.6 °F 39.7 °F 42.8 °F 93% 30.30 in 1.8 mi West 9.2 mph - N/A   Scattered Clouds
8:50 AM 44.6 °F 39.7 °F 44.6 °F 100% 30.30 in 0.8 mi West 9.2 mph - N/A   Mostly Cloudy
9:00 AM 44.6 °F 40.2 °F 44.6 °F 100% 30.30 in 0.5 mi West 8.1 mph - N/A Fog Fog
9:03 AM 44.6 °F 40.2 °F 42.8 °F 93% 30.30 in 1.0 mi West 8.1 mph - N/A   Mostly Cloudy
9:04 AM 44.6 °F 40.2 °F 42.8 °F 93% 30.30 in 2.2 mi West 8.1 mph - N/A   Mostly Cloudy
9:05 AM 44.6 °F 40.2 °F 42.8 °F 93% 30.30 in 6.0 mi West 8.1 mph - N/A   Mostly Cloudy
9:10 AM 44.6 °F 40.2 °F 42.8 °F 93% 30.30 in 9.0 mi West 8.1 mph - N/A   Scattered Clouds
9:34 AM 44.6 °F 40.2 °F 44.6 °F 100% 30.30 in 4.0 mi West 8.1 mph - N/A   Partly Cloudy
9:44 AM 46.4 °F 41.9 °F 44.6 °F 93% 30.31 in 7.0 mi West 9.2 mph - N/A   Scattered Clouds
10:00 AM 44.6 °F 40.2 °F 44.6 °F 100% 30.32 in 9.0 mi West 8.1 mph - N/A   Partly Cloudy
11:00 AM 49 °F - 46 °F 84% 30.31 in - WNW 1.2 mph - -  
11:00 AM 48.2 °F - 46.4 °F 93% 30.32 in 9.0 mi West 3.5 mph - N/A   Clear
12:00 PM 50.0 °F - 46.4 °F 87% 30.33 in 9.0 mi WNW 5.8 mph - N/A   Clear
1:00 PM 50.0 °F - 46.4 °F 87% 30.33 in 9.0 mi ENE 5.8 mph - N/A   Clear
1:35 PM 50.0 °F - 48.2 °F 94% 30.34 in 9.0 mi NE 6.9 mph - N/A   Mostly Cloudy
1:54 PM 50.0 °F - 46.4 °F 87% 30.33 in 9.0 mi ENE 6.9 mph - N/A   Mostly Cloudy
2:00 PM 49 °F - 47 °F 89% 30.32 in - ENE 5.8 mph - -  
2:00 PM 48.2 °F - 46.4 °F 93% 30.33 in 6.0 mi ENE 6.9 mph - N/A   Mostly Cloudy
2:24 PM 50.0 °F - 48.2 °F 94% 30.32 in 9.0 mi East 8.1 mph - N/A   Scattered Clouds
2:54 PM 51.8 °F - 46.4 °F 82% 30.32 in 9.0 mi East 6.9 mph - N/A   Mostly Cloudy
3:00 PM 51.8 °F - 48.2 °F 88% 30.32 in 9.0 mi East 6.9 mph - N/A   Mostly Cloudy
3:44 PM 50.0 °F - 46.4 °F 87% 30.32 in 9.0 mi East 4.6 mph - N/A   Mostly Cloudy
4:00 PM 50.0 °F - 46.4 °F 87% 30.32 in 9.0 mi East 4.6 mph - N/A   Mostly Cloudy
5:00 PM 50 °F - 46 °F 81% 30.31 in - ESE 3.5 mph - -  
5:00 PM 50.0 °F - 46.4 °F 87% 30.32 in 9.0 mi SE 4.6 mph - N/A   Overcast
6:00 PM 50.0 °F - 46.4 °F 87% 30.31 in 9.0 mi Variable 2.3 mph - N/A   Mostly Cloudy
7:00 PM 48.2 °F - 46.4 °F 93% 30.32 in 9.0 mi Variable 2.3 mph - N/A   Overcast
8:00 PM 47 °F - 45 °F 91% 30.32 in - SW 2.3 mph - -  
8:00 PM 48.2 °F - 44.6 °F 87% 30.33 in 9.0 mi Variable 3.5 mph - N/A   Overcast
8:29 PM 48.2 °F - 46.4 °F 93% 30.32 in 9.0 mi ENE 3.5 mph - N/A   Overcast
9:00 PM 48.2 °F - 46.4 °F 93% 30.32 in 9.0 mi South 3.5 mph - N/A   Overcast
10:00 PM 48.2 °F - 46.4 °F 93% 30.33 in 9.0 mi SSE 2.3 mph - N/A   Overcast
11:00 PM 48 °F - 46 °F 90% 30.32 in - Calm Calm - -  
11:00 PM 48.2 °F - 46.4 °F 93% 30.33 in 9.0 mi Calm Calm - N/A   Overcast